Weather in Bilukhivka

Ukraine / Poltava Region     49°35′04″N   35°17′12″E
temp.,
°C
wind,
m/s
gust,
m/s
humid.,
%
clouds,
%
prec.,
mm/h
press.,
hPa
HPBL,
m
4 december, sat
sat423:00+3nw61095100 0.4 1009477
02:00+2nw4895100 1.2 1012481
05:00+2wnw3682100 0.1 1013542
08:00+1nw3582100 0.1 1015348
11:00+2nnw3355100 0.0 1015449
14:00+2n2361100 0.0 1014456
17:000nne2474100 0.0 101487
20:00−1ene358185 0.0 101484
5 december, sun
sun523:00−1ene33828 0.0 101458
02:00−2ene34849 0.0 101484
05:00−2ene368591 0.0 1014110
08:00−2ene36835 0.0 1015135
11:00+2ene34580 0.0 1015398
14:00+2ene235382 0.0 1015207
17:00−1e3467100 0.0 101647
20:00−2ese3471100 0.0 101772
6 december, mon
mon623:00−1se3574100 0.0 1017138
02:00−1se3586100 0.0 1018142
05:00−1se3594100 0.0 1017119
08:000se4892100 0.0 1017221
11:00+3sse4679100 0.0 1017372
14:00+3se4883100 0.0 1017285
17:00+3se51191100 0.6 1016308
20:00+4se71494100 1.1 1015382
7 december, tue
tue723:00+5sse61496100 1.9 1014440
02:00+6s61496100 2.2 1013416
05:00+8s61494100 0.3 1012398
08:00+8sse51293100 0.9 1012330
11:00+10s61484100 0.4 1011559
14:00+8se4796100 4.5 1010179
17:00+8se4984100 0.3 1009223
20:00+7sse498671 0.3 1009198
8 december, wed
wed823:00+7se3684100 0.0 1008120
02:00+5ese3383100 0.0 100831
05:00+5e4880100 0.0 1006143
08:00+5e51082100 0.0 1006218
11:00+7ese51073100 0.0 1005308
14:00+8ese5972100 0.0 1004390
17:00+6ese4982100 0.0 1004220
20:00+6ese4788100 0.0 1004147